25302 LPBJ-LPBJ

Flight info

Callsign 25302
Flight time 0h 17m
Altitude 15000
Route BEJ
Aircraft E314/L-VGD/A

Departure

Time 2026-04-18 19:33
Airport Beja Airport / Airbase (LPBJ)

Arrival

Time 2026-04-18 19:51
Airport Beja Airport / Airbase (LPBJ)
Time Latitude Longitude Altitude Speed Heading
2026-04-18 19:33 38.07886 -7.93276 965 ft 172 kts 185°
2026-04-18 19:33 38.06641 -7.93432 1715 ft 188 kts 187°
2026-04-18 19:34 38.05280 -7.93599 2261 ft 209 kts 185°
2026-04-18 19:34 38.03816 -7.93770 3118 ft 209 kts 185°
2026-04-18 19:34 38.02406 -7.93811 4188 ft 198 kts 176°
2026-04-18 19:34 38.00969 -7.93694 4574 ft 221 kts 175°
2026-04-18 19:35 37.99315 -7.93546 4656 ft 255 kts 174°
2026-04-18 19:35 37.97449 -7.93358 4832 ft 282 kts 174°
2026-04-18 19:35 37.95439 -7.93141 5052 ft 295 kts 174°
2026-04-18 19:35 37.93364 -7.92903 5275 ft 303 kts 174°
2026-04-18 19:36 37.91276 -7.92652 5495 ft 308 kts 173°
2026-04-18 19:36 37.89134 -7.92382 5747 ft 311 kts 173°
2026-04-18 19:36 37.86977 -7.92310 5962 ft 314 kts 192°
2026-04-18 19:36 37.85324 -7.94043 6176 ft 325 kts 244°
2026-04-18 19:37 37.85336 -7.96858 6388 ft 334 kts 295°
2026-04-18 19:37 37.87015 -7.98812 6606 ft 334 kts 333°
2026-04-18 19:37 37.89128 -8.00046 6868 ft 335 kts 337°
2026-04-18 19:37 37.91279 -8.01178 7129 ft 335 kts 339°
2026-04-18 19:38 37.93452 -8.02247 7395 ft 335 kts 339°
2026-04-18 19:38 37.95606 -8.03275 7654 ft 335 kts 340°
2026-04-18 19:38 37.97797 -8.04305 7912 ft 335 kts 340°
2026-04-18 19:38 37.99988 -8.05323 8186 ft 335 kts 340°
2026-04-18 19:39 38.02184 -8.06324 8455 ft 335 kts 341°
2026-04-18 19:39 38.04400 -8.07246 8714 ft 335 kts 342°
2026-04-18 19:39 38.06624 -8.08129 8975 ft 335 kts 342°
2026-04-18 19:39 38.08856 -8.08960 9242 ft 330 kts 344°
2026-04-18 19:40 38.11040 -8.09685 9484 ft 321 kts 345°
2026-04-18 19:40 38.13152 -8.10390 9715 ft 315 kts 344°
2026-04-18 19:40 38.15232 -8.11211 9924 ft 311 kts 339°
2026-04-18 19:40 38.17243 -8.12157 10094 ft 308 kts 350°
2026-04-18 19:41 38.19217 -8.11409 10196 ft 304 kts 46°
2026-04-18 19:41 38.20081 -8.09045 10351 ft 297 kts 82°
2026-04-18 19:41 38.20080 -8.06463 10527 ft 291 kts 104°
2026-04-18 19:41 38.19113 -8.04291 10670 ft 284 kts 144°
2026-04-18 19:42 38.17265 -8.03814 10776 ft 280 kts 195°
2026-04-18 19:42 38.15480 -8.04783 10948 ft 278 kts 197°
2026-04-18 19:42 38.13646 -8.04477 11079 ft 279 kts 153°
2026-04-18 19:42 38.11996 -8.03272 10291 ft 297 kts 159°
2026-04-18 19:43 38.09918 -8.02127 9261 ft 348 kts 156°
2026-04-18 19:43 38.07834 -8.00874 8626 ft 313 kts 155°
2026-04-18 19:43 38.05953 -7.99755 7846 ft 287 kts 155°
2026-04-18 19:43 38.04173 -7.98703 6641 ft 281 kts 154°
2026-04-18 19:44 38.02467 -7.97485 5189 ft 282 kts 141°
2026-04-18 19:44 38.01846 -7.95322 3984 ft 280 kts 70°
2026-04-18 19:44 38.04612 -7.92637 1936 ft 255 kts
2026-04-18 19:45 38.05885 -7.92488 1618 ft 241 kts
2026-04-18 19:45 38.07424 -7.92300 1633 ft 210 kts
2026-04-18 19:45 38.08835 -7.92063 1369 ft 202 kts
2026-04-18 19:45 38.10153 -7.91840 1445 ft 177 kts
2026-04-18 19:46 38.10966 -7.92259 1324 ft 123 kts 266°
2026-04-18 19:46 38.10494 -7.92888 898 ft 106 kts 192°
2026-04-18 19:46 38.09822 -7.92958 688 ft 99 kts 189°
2026-04-18 19:46 38.09183 -7.93066 672 ft 131 kts 188°
2026-04-18 19:47 38.08591 -7.93149 657 ft 148 kts 187°
2026-04-18 19:47 38.08065 -7.93216 646 ft 153 kts 186°
2026-04-18 19:47 38.08039 -7.93220 647 ft 153 kts 187°
2026-04-18 19:48 38.07115 -7.93336 627 ft 111 kts 188°
2026-04-18 19:48 38.06578 -7.93414 640 ft 104 kts 189°
2026-04-18 19:48 38.06437 -7.93436 665 ft 105 kts 189°
2026-04-18 19:48 38.05695 -7.93515 1222 ft 115 kts 166°
2026-04-18 19:49 38.05195 -7.92456 1573 ft 168 kts 81°
2026-04-18 19:49 38.06138 -7.91671 1782 ft 192 kts
2026-04-18 19:49 38.07470 -7.91310 1814 ft 204 kts
2026-04-18 19:49 38.08867 -7.90969 2010 ft 207 kts
2026-04-18 19:50 38.10261 -7.90684 2229 ft 191 kts 359°
2026-04-18 19:50 38.11134 -7.91406 1899 ft 144 kts 290°
2026-04-18 19:50 38.11169 -7.92657 1412 ft 152 kts 239°
2026-04-18 19:50 38.10132 -7.92942 875 ft 167 kts 184°
2026-04-18 19:51 38.09045 -7.93081 629 ft 141 kts 188°
2026-04-18 19:51 38.08196 -7.93210 628 ft 92 kts 186°
2026-04-18 19:51 38.07883 -7.93212 625 ft 17 kts 108°
2026-04-18 19:51 38.07880 -7.93023 631 ft 23 kts 94°
2026-04-18 19:52 38.07993 -7.92978 624 ft 24 kts
2026-04-18 19:52 38.08151 -7.92955 623 ft 24 kts
2026-04-18 19:52 38.08356 -7.92942 621 ft 35 kts
2026-04-18 19:52 38.08626 -7.92903 623 ft 39 kts
2026-04-18 19:53 38.08870 -7.92863 622 ft 37 kts
2026-04-18 19:53 38.09114 -7.92835 625 ft 26 kts
2026-04-18 19:53 38.09339 -7.92672 632 ft 25 kts 127°
2026-04-18 19:54 38.09286 -7.92473 622 ft 23 kts 92°
2026-04-18 19:54 38.09278 -7.92426 622 ft 21 kts 128°
2026-04-18 19:54 38.09224 -7.92382 625 ft 23 kts 168°
2026-04-18 19:55 38.09189 -7.92359 627 ft 0 kts 72°